EW0347 Weather Reports


time (UTC)temp
F
wind
direction
speed
knots
gust
knots
rain 1hr
in
rain 24hr
in
rain mn
in
humidity
%
barometer
mb
20260507030007 51 287 4.3 9.6 0.02 0.19 0.19 89 1006.8
20260507024549 52 316 5.2 13.9 0.03 0.19 0.19 90 1006.4
20260507023038 53 322 5.2 13.0 0.02 0.18 0.18 91 1006.6
20260507021519 54 277 4.3 11.3 0.01 0.17 0.17 91 1006.9
20260507020045 55 298 3.5 12.2 0.01 0.17 0.17 92 1006.2
20260507014520 56 292 2.6 9.6 0.00 0.16 0.16 92 1005.9
20260507013053 56 223 2.6 12.2 0.00 0.16 0.16 93 1006.1
20260507011529 56 267 1.7 7.0 0.00 0.16 0.16 92 1005.6
20260507010055 56 189 2.6 7.0 0.00 0.16 0.16 92 1005.6
20260507004523 56 206 0.0 9.6 0.00 0.16 0.16 92 1005.5
20260507003055 56 195 1.7 7.0 0.00 0.16 0.16 92 1005.3
20260507001534 56 197 1.7 8.7 0.00 0.16 0.16 92 1005.0
20260507000004 56 153 2.6 7.0 0.00 0.16 0.16 92 1005.0
20260506234543 57 197 1.7 7.0 0.00 0.16 0.16 92 1005.0
20260506233006 57 234 2.6 8.7 0.00 0.16 0.16 92 1004.8
20260506231537 57 189 0.9 7.8 0.00 0.16 0.16 92 1004.7
20260506230010 57 202 1.7 7.0 0.00 0.16 0.16 92 1004.6
20260506224545 57 206 0.9 8.7 0.00 0.16 0.16 92 1004.7
20260506223016 57 225 2.6 8.7 0.00 0.16 0.16 92 1005.0
20260506221541 57 196 2.6 10.4 0.00 0.16 0.16 91 1004.9
20260506220009 57 207 1.7 8.7 0.01 0.16 0.16 91 1005.0
20260506214547 57 198 3.5 8.7 0.03 0.16 0.16 91 1004.9
20260506213022 57 214 2.6 13.9 0.04 0.16 0.16 91 1005.0
20260506211549 57 273 2.6 7.8 0.06 0.16 0.16 91 1004.9
20260506210023 57 265 1.7 7.8 0.08 0.15 0.15 91 1005.1
20260506204501 58 181 2.6 7.8 0.07 0.13 0.13 90 1005.2
20260506203035 58 163 3.5 9.6 0.08 0.12 0.12 90 1005.3
20260506201612 58 199 1.7 7.8 0.07 0.10 0.10 90 1005.6
20260506200057 59 209 0.9 13.9 0.04 0.07 0.07 90 1005.6
20260506194526 59 182 1.7 7.0 0.04 0.06 0.06 90 1005.8
20260506193016 59 185 0.9 5.2 0.02 0.04 0.04 89 1005.9
20260506191559 59 238 2.6 5.2 0.01 0.03 0.03 88 1005.9
20260506190044 60 153 1.7 6.1 0.02 0.03 0.03 88 1005.9
20260506184531 60 216 1.7 12.2 0.02 0.02 0.02 88 1005.7
20260506183015 60 173 1.7 7.0 0.02 0.02 0.02 87 1006.0
20260506181507 61 211 2.6 6.1 0.02 0.02 0.02 85 1006.3
20260506180053 61 233 0.9 4.3 0.01 0.01 0.01 85 1006.6
20260506174539 62 231 0.9 5.2 0.00 0.00 0.00 82 1006.9
20260506173025 63 212 0.9 4.3 0.00 0.00 0.00 79 1007.2
20260506170038 65 206 3.5 10.4 0.00 0.00 0.00 70 1007.0
20260506164506 66 190 2.6 8.7 0.00 0.00 0.00 70 1007.1
20260506163038 65 211 1.7 7.8 0.00 0.00 0.00 70 1007.1
20260506161509 65 209 2.6 9.6 0.00 0.00 0.00 70 1007.5
20260506160045 65 186 2.6 8.7 0.00 0.00 0.00 70 1007.6
20260506154516 65 211 4.3 13.9 0.00 0.00 0.00 70 1007.8
20260506153047 65 225 2.6 8.7 0.00 0.00 0.00 70 1008.0
20260506151530 65 222 2.6 8.7 0.00 0.00 0.00 70 1008.1
20260506150050 65 204 1.7 11.3 0.00 0.00 0.00 69 1008.2
20260506144512 66 238 2.6 11.3 0.00 0.00 0.00 68 1008.3
20260506143045 66 204 2.6 10.4 0.00 0.00 0.00 69 1008.1
20260506141508 67 180 4.3 13.0 0.00 0.00 0.00 68 1008.0
20260506140039 66 202 2.6 8.7 0.00 0.00 0.00 70 1007.8
20260506134518 65 221 4.3 15.6 0.00 0.00 0.00 72 1007.7
20260506133051 64 250 1.7 13.0 0.00 0.00 0.00 74 1008.0
20260506131525 63 184 3.5 11.3 0.00 0.00 0.00 75 1008.2
20260506130110 63 186 2.6 7.8 0.00 0.00 0.00 76 1008.3
20260506124522 62 202 2.6 8.7 0.00 0.00 0.00 78 1008.4
20260506123054 61 180 1.7 9.6 0.00 0.00 0.00 79 1008.6
20260506121525 60 225 2.6 7.8 0.00 0.00 0.00 81 1008.4
20260506120100 60 186 3.5 9.6 0.00 0.00 0.00 81 1008.5
20260506114538 59 242 1.7 7.8 0.00 0.00 0.00 81 1008.8
20260506113106 58 173 2.6 12.2 0.00 0.00 0.00 83 1008.7
20260506111529 58 202 1.7 4.3 0.00 0.00 0.00 83 1009.0
20260506110050 57 242 0.9 7.8 0.00 0.00 0.00 83 1008.9
20260506104626 56 199 2.6 4.3 0.00 0.00 0.00 84 1008.9
20260506103102 56 191 0.0 6.1 0.00 0.00 0.00 84 1008.8
20260506101554 56 168 2.6 7.0 0.00 0.00 0.00 83 1008.7
20260506100024 56 215 0.9 8.7 0.00 0.00 0.00 82 1008.7
20260506094514 56 186 2.6 6.1 0.00 0.00 0.00 82 1008.7
20260506093052 56 186 1.7 5.2 0.00 0.00 0.00 81 1008.6
20260506091534 57 184 2.6 7.0 0.00 0.00 0.00 81 1008.5
20260506090008 57 196 0.9 7.8 0.00 0.00 0.00 80 1008.7
20260506084553 57 131 1.7 7.0 0.00 0.00 0.00 79 1008.6
20260506083036 57 194 1.7 7.0 0.00 0.00 0.00 79 1008.8
20260506081514 57 193 1.7 9.6 0.00 0.00 0.00 77 1008.8
20260506073103 58 175 1.7 6.1 0.00 0.00 0.00 75 1009.0
20260506071524 58 219 1.7 9.6 0.00 0.00 0.00 75 1008.8
20260506061535 59 198 1.7 3.5 0.00 0.00 0.00 71 1008.8
20260506044542 60 190 0.9 7.0 0.00 0.00 0.00 67 1009.0
20260506043013 61 186 0.9 3.5 0.00 0.00 0.00 66 1009.1
20260506041556 61 192 1.7 8.7 0.00 0.00 0.00 65 1009.2
20260506040022 61 164 0.9 7.8 0.00 0.00 0.00 64 1009.2
20260506034556 62 194 1.7 7.8 0.00 0.00 0.00 63 1009.0
20260506033034 62 204 1.7 5.2 0.00 0.00 0.00 63 1009.0
20260506031606 62 225 0.0 6.1 0.00 0.00 0.00 63 1009.2